Seaglider sg537 (Fin) on mission AlterECO 1 Piloting

  • Public vehicle
  • Serial Number sg537
  • Operated by UEA on the AlterECO project

  • Deployed: 2017/11/06 00:00:00 UTC (710 days ago) by Gareth Lee
  • Recovered: 2018/01/18 16:00:00 UTC (637 days ago) by Gareth Lee
  • Time at Sea: 2 months
  • Profiles Performed: 3094

Near Real-Time Data

 
conductivity
eng_aa4330_O2
eng_aa4330_Temp
salinity
sigma_theta
temperature

Communication Log

# Updated Depth Speed Plots
1288927 2018-01-24 01:46:05 UTC (631 days ago)
1289084 2018-01-24 01:05:35 UTC (631 days ago)
1288890 2018-01-24 00:22:53 UTC (631 days ago)
1288906 2018-01-23 23:45:12 UTC (631 days ago)
1288905 2018-01-23 23:02:13 UTC (631 days ago)
1288904 2018-01-23 22:21:04 UTC (631 days ago)
1288903 2018-01-23 21:40:01 UTC (631 days ago)
1288902 2018-01-23 20:58:02 UTC (632 days ago)
1288901 2018-01-23 20:15:01 UTC (632 days ago)
1288900 2018-01-23 19:33:12 UTC (632 days ago)
1288899 2018-01-23 18:50:31 UTC (632 days ago)
1288898 2018-01-23 18:10:42 UTC (632 days ago)
1288897 2018-01-23 17:27:29 UTC (632 days ago)
1288660 2018-01-23 16:40:35 UTC (632 days ago)
1288669 2018-01-23 16:01:37 UTC (632 days ago)
1288668 2018-01-23 15:16:19 UTC (632 days ago)
1288667 2018-01-23 14:33:26 UTC (632 days ago)
1288680 2018-01-23 13:52:13 UTC (632 days ago)
1288679 2018-01-23 13:05:56 UTC (632 days ago)
1288678 2018-01-23 12:23:01 UTC (632 days ago)